Regional Weather Roundup
Issued by NWS Albany, NY

Home | Current Version | Previous Version | Text Only | Print | Product List | Glossary On
Versions: 1 2 3 4 5 6 7 8 9 10 11 12 13 14 15 16 17 18 19 20 21 22 23 24 25
000
ASUS41 KALY 242010
RWRALY

NEW YORK STATE HOURLY WEATHER ROUNDUP
NATIONAL WEATHER SERVICE ALBANY NY
400 PM EDT MON JUL 24 2017

NOTE: "FAIR" INDICATES FEW OR NO CLOUDS BELOW 12,000 FEET WITH NO
SIGNIFICANT WEATHER AND/OR NO OBSTRUCTIONS TO VISIBILITY.

NYZ032-033-038>043-046>054-057>066-NYZ062>081-082-084-242100-
EAST


CITY           SKY/WX    TMP DP  RH WIND       PRES   REMARKS
ALBANY         CLOUDY    65  56  72 N3        29.89R
GLENS FALLS    CLOUDY    61  55  81 NE8       29.91F
POUGHKEEPSIE   CLOUDY    68  58  70 N5        29.85S
NEWBURGH       CLOUDY    68  61  77 E12       29.87S
MONTGOMERY     CLOUDY    67  59  75 NE9       29.87R
WHITE PLAINS   PTSUNNY   67  58  72 N10       29.86R
ISLIP          CLOUDY    65  60  84 N16G24    29.83R
NEW YORK CITY  CLOUDY    67  60  78 NE13      29.85R
CENTRAL PARK   CLOUDY    68  61  78 VRB5      29.88R
$$

NYZ005>009-017-018-044>046-055-056-242100-
CENTRAL


CITY           SKY/WX    TMP DP  RH WIND       PRES   REMARKS
FULTON         CLOUDY    70  65  84 VRB6      29.79R
SYRACUSE       PTSUNNY   73  67  81 VRB7      29.76S THUNDER
ROME           CLOUDY    66  59  78 SE17G24   29.83S
ELMIRA         MOSUNNY   78  70  76 E9        29.78R
BINGHAMTON     LGT RAIN  66  65  96 E8        29.83F
$$

NYZ026>034-041>043-087-242100-
NORTH


CITY           SKY/WX    TMP DP  RH WIND       PRES   REMARKS
WATERTOWN      CLOUDY    71  66  84 SW7       29.77R
FORT DRUM      NOT AVBL
OGDENSBURG     CLOUDY    61  60  97 E9G17     29.81S
MASSENA        CLOUDY    62  60  93 NE14      29.85S
SARANAC LAKE   MOSUNNY   62  55  77 S7        29.86S
PLATTSBURGH    CLOUDY    59  56  89 VRB5      29.93R
$$

NYZ001>004-010>016-019>021-085-242100-
WEST


CITY           SKY/WX    TMP DP  RH WIND       PRES   REMARKS
NIAGARA FALLS  CLOUDY    75  60  59 SW15      29.80R
BUFFALO        LGT RAIN  72  61  68 W14       29.81R
DUNKIRK        PTSUNNY   71  61  70 W16G26    29.84R
JAMESTOWN      PTSUNNY   66  57  72 W16G24    29.89R
WELLSVILLE     MOSUNNY   75  58  55 W21G30    29.87R
ROCHESTER      PTSUNNY   76  62  62 W14       29.79R
PENN YAN       MOSUNNY   77  66  68 CALM      29.79R
$$

             KEY
       WCI = WIND CHILL INDEX
       VSB = VISIBILITY
       HX  = HEAT INDEX
$$




USA.gov is the U.S. government's official web portal to all federal, state and local government web resources and services.